Date,TemperatureHighF,TemperatureAvgF,TemperatureLowF,DewpointHighF,DewpointAvgF,DewpointLowF,HumidityHigh,HumidityAvg,HumidityLow,PressureMaxIn,PressureMinIn,WindSpeedMaxMPH,WindSpeedAvgMPH,GustSpeedMaxMPH,PrecipitationSumIn
2013-1-1,24,15,4,15,8,1,92,75,49,30.35,30.16,5,1,12,0.00
2013-1-2,40,30,13,30,25,9,88,82,64,30.24,30.07,11,1,11,0.02
2013-1-3,31,25,19,27,20,15,87,81,61,30.42,30.23,18,4,19,0.00
2013-1-4,35,23,18,22,17,15,89,78,55,30.33,30.14,10,3,14,0.00
2013-1-5,35,25,14,26,19,11,93,79,57,30.22,29.99,18,3,23,0.00
2013-1-6,36,25,12,25,19,9,92,77,56,30.34,30.13,13,3,21,0.00
2013-1-7,41,33,22,30,26,20,90,76,63,30.13,29.94,19,3,21,0.00
2013-1-8,42,32,19,32,27,17,94,82,65,30.12,29.83,17,2,20,0.01
2013-1-9,53,37,23,34,29,20,98,76,46,30.43,30.12,8,1,12,0.00
2013-1-10,41,37,34,36,34,25,97,88,57,30.31,29.66,12,4,21,0.06
2013-1-11,54,42,36,47,40,35,98,93,72,29.67,29.33,21,7,25,0.00
2013-1-14,31,18,7,14,10,4,89,73,47,30.50,30.37,3,0,13,0.00
2013-1-15,36,24,12,20,15,9,89,72,46,30.38,30.06,7,2,19,0.00
2013-1-16,55,38,24,35,28,18,87,68,46,30.21,29.91,6,3,17,0.00
2013-1-17,38,30,22,31,26,19,95,87,75,30.44,30.22,5,1,13,0.00
2013-1-18,52,40,29,35,31,27,95,71,48,30.28,29.86,10,4,23,0.00
2013-1-19,58,40,23,34,28,12,88,66,39,30.32,29.82,12,5,29,0.00
2013-1-20,22,17,14,13,10,8,81,72,53,30.44,30.31,6,2,17,0.00
2013-1-21,16,12,5,10,1,-4,80,60,45,30.50,30.40,8,2,21,0.00
2013-1-22,22,15,11,13,8,1,92,76,62,30.44,30.29,7,1,10,0.00
2013-1-23,35,20,10,23,12,2,92,73,57,30.55,30.19,20,5,24,0.01
2013-1-24,20,12,3,7,1,-5,80,62,54,30.60,30.22,15,4,18,0.00
2013-1-25,20,18,16,14,9,7,76,68,58,30.25,30.15,6,1,9,0.00
2013-1-26,47,31,17,28,21,11,83,66,47,30.25,30.01,11,6,22,0.00
2013-1-27,42,39,36,41,36,26,97,90,59,30.00,29.66,10,5,21,0.11
2013-1-28,45,39,35,44,38,34,100,98,97,29.84,29.52,5,1,10,0.01
2013-1-29,41,34,31,40,32,28,98,91,86,29.67,29.51,26,7,29,0.01
2013-1-30,31,23,14,28,19,9,95,83,63,29.95,29.59,27,8,31,0.01
2013-1-31,15,8,-1,9,0,-6,82,70,53,30.48,29.95,29,5,29,0.00
2013-2-1,10,2,-2,3,-4,-7,84,77,64,30.49,30.35,14,2,20,0.00
2013-2-2,38,30,25,32,24,20,93,80,72,30.21,30.05,7,2,20,0.00
2013-2-3,43,38,19,30,28,15,84,68,54,30.21,29.76,19,5,22,0.01
2013-2-4,35,28,23,31,23,21,90,83,72,30.02,29.75,17,3,22,0.00
2013-2-5,55,38,27,36,29,24,92,71,41,30.06,29.82,20,3,24,0.00
2013-2-6,52,41,30,39,33,26,88,74,59,30.06,29.81,24,4,24,0.00
2013-2-7,40,34,29,36,30,24,91,84,80,30.23,29.84,21,6,24,0.00
2013-2-8,34,29,26,27,25,23,92,85,74,30.34,30.14,14,3,18,0.00
2013-2-9,49,38,28,39,32,26,93,81,64,30.16,29.65,25,12,28,0.00
2013-2-10,46,38,30,43,33,24,97,85,72,29.77,29.22,32,9,34,0.02
2013-2-11,40,30,21,26,23,19,92,75,56,30.15,29.77,25,6,31,0.00
2013-2-12,39,23,19,26,20,17,94,88,60,30.15,30.05,11,1,13,0.00
2013-2-13,55,40,22,32,28,19,93,63,37,29.90,29.70,7,1,20,0.00
2013-2-14,48,38,22,33,29,16,88,72,42,30.26,29.76,18,6,30,0.00
2013-2-15,36,25,14,24,17,11,90,74,45,30.36,30.26,13,2,17,0.00
2013-2-16,34,24,10,26,18,6,91,80,70,30.35,30.02,13,4,15,0.03
2013-2-17,54,39,24,36,29,20,85,67,49,30.02,29.53,23,7,26,0.01
2013-2-18,45,32,21,34,25,15,90,76,60,30.06,29.51,29,7,32,0.00
2013-2-19,30,18,10,16,5,1,78,60,31,30.42,30.06,22,6,27,0.00
2013-2-20,26,17,5,9,4,-1,77,60,45,30.43,30.24,15,3,15,0.00
2013-2-21,26,23,22,21,17,8,92,80,54,30.27,29.85,17,4,19,0.00
2013-2-22,30,21,11,20,16,7,91,82,64,30.05,29.85,14,4,19,0.27
2013-2-23,38,22,6,28,17,3,91,81,64,30.03,29.85,13,3,16,0.09
2013-2-24,47,32,22,32,26,19,91,80,53,30.07,29.90,9,2,9,0.06
2013-2-25,39,30,26,31,26,24,93,85,71,30.08,29.91,13,4,16,0.02
2013-2-26,33,29,26,29,26,24,95,90,85,29.92,29.78,19,7,21,0.01
2013-2-27,39,29,24,27,24,20,89,83,61,30.09,29.88,15,8,29,0.00
2013-2-28,34,27,0,26,22,0,85,77,70,30.24,30.10,21,7,22,0.00
2013-3-1,31,26,24,23,20,18,86,77,64,30.37,30.22,21,6,22,0.00
2013-3-2,40,29,20,26,20,16,84,70,50,30.36,30.10,12,2,13,0.00
2013-3-3,40,33,26,30,26,23,86,76,66,30.10,29.70,23,7,25,0.00
2013-3-4,46,36,30,32,29,25,90,75,57,30.01,29.65,19,5,24,0.00
2013-3-5,33,28,24,29,20,17,85,72,67,30.40,30.00,32,9,38,0.00
2013-3-6,41,30,22,24,21,17,83,69,47,30.44,30.24,14,3,18,0.00
2013-3-7,51,36,25,31,26,20,82,69,46,30.28,30.09,21,8,24,0.00
2013-3-8,55,42,31,40,33,26,90,71,54,30.17,29.87,21,7,28,0.12
2013-3-9,54,45,0,51,43,0,94,90,80,29.89,29.48,22,6,27,0.27
2013-3-10,36,29,23,34,27,21,94,93,91,29.94,29.63,30,11,34,0.07
2013-3-11,30,23,21,24,20,19,93,89,76,29.95,29.89,19,6,23,0.02
2013-3-12,37,28,17,26,22,14,95,78,61,30.33,30.01,12,4,30,0.01
2013-3-13,39,32,15,23,21,12,92,64,49,30.46,30.24,10,3,12,0.04
2013-3-14,62,45,32,43,34,22,82,66,47,30.24,30.02,11,2,12,0.00
2013-3-15,63,46,36,47,38,34,93,78,52,30.02,29.67,11,1,13,0.00
2013-3-16,39,33,29,37,28,24,92,81,68,30.17,29.80,4,4,0,0.00
2013-3-17,46,34,24,35,26,19,93,72,50,30.15,29.74,11,6,25,0.01
2013-3-18,42,35,25,34,20,15,95,56,38,30.04,29.70,28,8,31,0.05
2013-3-19,53,32,20,28,19,14,80,60,30,30.33,30.03,17,4,23,0.00
2013-3-20,40,26,16,16,12,7,76,55,31,30.40,30.11,14,6,18,0.00
2013-3-21,32,25,22,16,14,12,73,63,45,30.12,29.92,7,4,12,0.00
2013-3-23,42,33,29,30,26,22,91,76,52,30.11,30.02,6,4,18,0.00
2013-3-24,30,28,26,27,23,21,92,83,70,30.08,30.03,9,6,23,0.03
2013-3-25,32,28,24,25,23,20,91,83,67,30.35,30.08,8,6,22,0.00
2013-3-26,42,29,15,25,20,12,91,70,46,30.39,30.23,6,4,15,0.03
2013-3-27,53,40,27,32,27,22,82,62,41,30.28,30.16,10,6,19,0.00
2013-3-28,59,45,28,35,32,26,93,62,35,30.23,30.11,7,3,14,0.00
2013-3-29,70,58,33,41,35,30,91,46,25,30.18,29.99,20,6,20,0.00
2013-3-30,72,57,48,56,45,35,95,66,33,30.02,29.83,21,4,22,0.22
2013-3-31,62,48,33,42,34,25,92,65,27,30.11,29.88,26,6,28,0.04
2013-4-1,43,29,21,31,21,17,92,74,36,30.32,30.11,14,5,19,0.05
2013-4-2,55,38,21,29,23,17,92,58,32,30.33,30.22,9,2,12,0.00
2013-4-3,57,43,31,30,26,23,73,53,34,30.33,30.17,20,5,22,0.00
2013-4-4,68,50,34,42,33,26,81,55,36,30.19,30.00,14,4,16,0.00
2013-4-5,69,53,34,42,35,29,83,55,34,30.13,29.65,24,8,30,0.00
2013-4-6,73,60,52,47,43,39,72,54,33,29.70,29.52,22,7,28,0.00
2013-4-7,75,56,43,51,44,38,91,67,31,29.80,29.56,20,4,22,0.16
2013-4-8,68,57,47,59,53,45,97,88,71,29.65,29.54,16,2,17,0.07
2013-4-9,62,46,34,60,45,33,96,94,90,29.92,29.51,13,5,31,0.83
2013-4-10,37,36,33,36,34,32,97,95,93,29.95,29.77,16,7,18,0.40
2013-4-11,38,34,30,35,31,28,96,91,86,29.78,29.62,17,4,20,0.07
2013-4-12,42,36,31,33,30,27,90,80,63,30.00,29.71,18,4,21,0.01
2013-4-13,53,42,27,40,33,24,92,73,58,30.01,29.63,18,7,22,0.00
2013-4-14,67,53,42,52,44,36,92,70,54,29.65,29.26,15,4,26,0.34
2013-4-15,48,41,34,36,31,25,85,67,54,30.07,29.61,0,0,0,0.00
2013-4-16,56,44,36,36,32,29,82,63,40,30.23,30.05,18,3,20,0.00
2013-4-17,47,42,38,42,38,34,96,87,65,30.14,29.67,12,3,17,0.86
2013-4-18,37,34,32,35,31,28,95,89,83,29.89,29.67,0,0,0,0.56
2013-4-19,51,38,28,30,25,22,84,63,36,30.09,29.84,21,5,24,0.00
2013-4-20,48,37,23,29,23,19,92,61,38,30.26,30.09,15,6,17,0.00
2013-4-21,68,53,45,51,40,29,94,62,37,30.14,29.93,24,9,30,0.58
2013-4-22,51,44,33,51,42,30,98,94,88,30.18,29.89,9,9,9,1.00
2013-4-23,42,34,28,30,26,23,88,73,57,30.24,30.14,20,8,25,0.00
2013-4-24,60,41,24,41,30,21,90,70,29,30.20,30.01,15,4,24,0.03
2013-4-25,70,50,29,38,34,27,94,58,28,30.23,29.96,23,7,26,0.01
2013-4-26,74,60,51,51,44,37,85,59,40,30.11,29.96,23,8,24,0.00
2013-4-27,70,56,45,53,48,43,96,77,50,30.15,29.88,10,5,12,0.00
2013-4-28,81,65,47,55,50,45,94,64,34,29.89,29.60,23,6,23,0.00
2013-4-29,85,68,55,60,53,47,83,62,29,29.69,29.43,6,6,6,0.00
2013-4-30,76,70,61,58,52,44,60,52,44,29.77,29.38,0,0,9,0.00
2013-5-1,61,43,33,45,38,32,95,83,50,30.37,29.79,0,0,0,0.50
2013-5-2,48,40,33,36,33,30,96,77,58,30.53,30.38,0,0,0,1.06
2013-5-3,48,40,31,35,32,28,88,72,57,30.36,30.02,0,0,0,0.00
2013-5-4,44,42,36,41,39,33,94,91,81,30.12,29.96,0,0,0,0.06
2013-5-5,56,48,42,50,44,40,95,89,78,30.15,30.06,0,0,0,0.00
2013-5-6,70,56,48,56,50,46,93,81,56,30.11,29.97,0,0,0,0.00
2013-5-7,75,60,44,58,51,42,100,76,45,30.03,29.87,0,0,0,0.06
2013-5-8,69,62,56,60,57,54,94,85,71,29.89,29.81,0,0,0,0.05
2013-5-9,71,60,56,61,57,53,97,91,65,29.93,29.78,0,0,0,1.30
2013-5-10,73,59,49,57,50,46,93,74,48,30.03,29.93,0,0,0,0.00
2013-5-11,64,54,42,48,35,26,90,51,28,30.19,29.96,0,0,0,0.00
2013-5-12,68,51,32,37,31,26,91,52,24,30.24,30.06,0,0,0,0.00
2013-5-13,83,67,48,54,44,32,71,46,26,30.07,29.75,0,0,0,0.00
2013-5-14,100,80,60,62,55,46,86,48,17,29.75,29.51,0,0,0,0.00
2013-5-15,84,75,62,49,45,40,56,35,22,29.81,29.66,0,0,0,0.00
2013-5-16,82,72,67,62,58,47,79,62,46,29.75,29.65,0,0,0,0.00
2013-5-17,86,75,65,65,61,59,85,64,42,29.79,29.70,0,0,0,0.00
2013-5-18,86,76,63,67,64,59,87,67,48,29.78,29.58,0,0,0,0.00
2013-5-19,76,66,60,67,62,56,97,87,70,29.71,29.39,0,0,0,0.95
2013-5-20,60,59,58,57,56,56,92,89,86,29.48,29.40,0,0,0,0.00
2013-5-21,63,60,55,57,52,48,84,74,62,29.65,29.50,0,0,0,0.00
2013-5-22,60,56,52,55,51,49,90,83,72,29.91,29.65,0,0,0,0.01
2013-5-23,75,66,52,54,46,42,91,52,36,30.17,29.92,0,0,0,0.00
2013-5-24,70,59,52,53,47,44,76,66,49,30.22,30.12,0,0,0,0.00
2013-5-25,79,67,57,69,59,48,97,78,53,30.03,29.86,0,0,0,0.35
2013-5-26,79,69,63,70,64,60,93,85,73,29.91,29.74,0,0,0,0.00
2013-5-27,80,70,60,68,64,58,96,82,63,29.79,29.49,0,0,0,1.33
2013-5-28,84,72,61,70,64,60,97,78,54,29.63,29.52,0,0,0,0.01
2013-5-29,75,69,63,70,65,61,95,86,72,29.62,29.42,0,0,0,0.86
2013-5-30,63,63,62,62,61,60,97,93,88,29.51,29.40,0,0,0,0.07